Wetterdaten: Woche 04.01.16 - 10.01.16 (KW1)
Datum Zeit Temp. A. Feuchte A. Luftdruck Regen Wind Richtung Sonnenschein ET UV Solar Taupunkt Windchill Windben Empfang
04.01.2016 00:00 -6,4 C 92 % 1001,8 hPa 0,0 l/m 22,0 km/h (4 Bft) NO 0,00 h 0,000 mm 0,0 UV-I 0 W/m -7,4 C -18,8 C 32,2 km/h (5 Bft) 98,73 %
04.01.2016 01:00 -6,3 C 92 % 1000,4 hPa 0,0 l/m 19,7 km/h (3 Bft) O-NO 0,00 h 0,000 mm 0,0 UV-I 0 W/m -7,4 C -17,6 C 28,2 km/h (4 Bft) 98,30 %
04.01.2016 02:00 -6,1 C 91 % 999,3 hPa 0,0 l/m 17,5 km/h (3 Bft) O-NO 0,00 h 0,000 mm 0,0 UV-I 0 W/m -7,3 C -16,0 C 26,9 km/h (4 Bft) 99,39 %
04.01.2016 03:00 -5,9 C 91 % 998,4 hPa 0,0 l/m 16,4 km/h (3 Bft) O-NO 0,00 h 0,000 mm 0,0 UV-I 0 W/m -7,1 C -15,0 C 24,5 km/h (4 Bft) 98,02 %
04.01.2016 04:00 -5,6 C 91 % 997,7 hPa 0,0 l/m 14,7 km/h (3 Bft) O-NO 0,00 h 0,000 mm 0,0 UV-I 0 W/m -6,9 C -13,6 C 22,9 km/h (4 Bft) 99,19 %
04.01.2016 05:00 -5,5 C 91 % 997,4 hPa 0,0 l/m 12,7 km/h (3 Bft) O-NO 0,00 h 0,000 mm 0,0 UV-I 0 W/m -6,8 C -11,9 C 19,6 km/h (3 Bft) 97,15 %
04.01.2016 06:00 -5,4 C 91 % 997,4 hPa 0,0 l/m 10,8 km/h (2 Bft) O-NO 0,00 h 0,000 mm 0,0 UV-I 0 W/m -6,7 C -9,9 C 17,8 km/h (3 Bft) 98,87 %
04.01.2016 07:00 -5,2 C 90 % 997,5 hPa 0,0 l/m 12,5 km/h (3 Bft) O 0,00 h 0,000 mm 0,0 UV-I 0 W/m -6,6 C -11,1 C 21,7 km/h (4 Bft) 97,45 %
04.01.2016 08:00 -5,2 C 91 % 997,2 hPa 0,0 l/m 17,2 km/h (3 Bft) O 0,00 h 0,000 mm 0,0 UV-I 16 W/m -6,4 C -14,7 C 25,5 km/h (4 Bft) 99,15 %
04.01.2016 09:00 -5,0 C 91 % 997,4 hPa 0,0 l/m 13,3 km/h (3 Bft) O-NO 0,00 h 0,000 mm 0,0 UV-I 39 W/m -6,3 C -11,7 C 21,6 km/h (4 Bft) 97,16 %
04.01.2016 10:00 -5,0 C 92 % 997,5 hPa 0,0 l/m 9,2 km/h (2 Bft) O-NO 0,00 h 0,025 mm 0,0 UV-I 68 W/m -6,0 C -8,2 C 15,7 km/h (3 Bft) 98,91 %
04.01.2016 11:00 -4,9 C 93 % 997,1 hPa 0,0 l/m 8,7 km/h (2 Bft) O-NO 0,00 h 0,026 mm 0,0 UV-I 71 W/m -5,9 C -7,4 C 15,3 km/h (3 Bft) 97,67 %
04.01.2016 12:00 -4,6 C 91 % 996,5 hPa 0,0 l/m 12,2 km/h (2 Bft) O-NO 0,17 h 0,025 mm 0,0 UV-I 144 W/m -5,8 C -10,4 C 18,6 km/h (3 Bft) 98,62 %
04.01.2016 13:00 -4,4 C 91 % 996,3 hPa 0,0 l/m 9,5 km/h (2 Bft) NO 0,00 h 0,051 mm 0,0 UV-I 89 W/m -5,6 C -7,7 C 15,6 km/h (3 Bft) 97,84 %
04.01.2016 14:00 -4,4 C 93 % 996,5 hPa 0,0 l/m 5,9 km/h (2 Bft) NO 0,00 h 0,025 mm 0,0 UV-I 38 W/m -5,3 C -4,8 C 10,1 km/h (2 Bft) 98,51 %
04.01.2016 15:00 -4,6 C 94 % 997,1 hPa 0,0 l/m 4,6 km/h (1 Bft) O-NO 0,00 h 0,000 mm 0,0 UV-I 10 W/m -5,4 C -4,6 C 7,1 km/h (2 Bft) 97,64 %
04.01.2016 16:00 -4,4 C 95 % 997,5 hPa 0,0 l/m 3,6 km/h (1 Bft) NO 0,00 h 0,000 mm 0,0 UV-I 4 W/m -5,2 C -4,4 C 5,7 km/h (1 Bft) 98,85 %
04.01.2016 17:00 -4,3 C 94 % 997,8 hPa 0,0 l/m 4,5 km/h (1 Bft) NO 0,00 h 0,000 mm 0,0 UV-I 0 W/m -5,1 C -4,4 C 7,6 km/h (2 Bft) 97,80 %
04.01.2016 18:00 -4,4 C 94 % 997,9 hPa 0,0 l/m 5,0 km/h (1 Bft) O-NO 0,00 h 0,000 mm 0,0 UV-I 0 W/m -5,2 C -4,4 C 8,2 km/h (2 Bft) 98,86 %
04.01.2016 19:00 -4,6 C 95 % 998,1 hPa 0,0 l/m 3,5 km/h (1 Bft) NO 0,00 h 0,000 mm 0,0 UV-I 0 W/m -5,3 C -4,6 C 5,9 km/h (2 Bft) 97,65 %
04.01.2016 20:00 -4,6 C 95 % 998,2 hPa 0,0 l/m 1,6 km/h (1 Bft) NO 0,00 h 0,000 mm 0,0 UV-I 0 W/m -5,3 C -4,6 C 3,7 km/h (1 Bft) 99,28 %
04.01.2016 21:00 -4,9 C 96 % 998,3 hPa 0,0 l/m 1,7 km/h (1 Bft) NO 0,00 h 0,000 mm 0,0 UV-I 0 W/m -5,5 C -4,9 C 3,5 km/h (1 Bft) 97,83 %
04.01.2016 22:00 -4,4 C 95 % 998,5 hPa 0,0 l/m 3,2 km/h (1 Bft) O-NO 0,00 h 0,000 mm 0,0 UV-I 0 W/m -5,1 C -4,4 C 5,2 km/h (1 Bft) 98,60 %
04.01.2016 23:00 -4,3 C 95 % 998,6 hPa 0,0 l/m 2,9 km/h (1 Bft) O-NO 0,00 h 0,000 mm 0,0 UV-I 0 W/m -5,0 C -4,3 C 5,5 km/h (1 Bft) 98,15 %
05.01.2016 00:00 -3,9 C 95 % 998,8 hPa 0,0 l/m 4,8 km/h (1 Bft) NO 0,00 h 0,000 mm 0,0 UV-I 0 W/m -4,6 C -3,9 C 7,8 km/h (2 Bft) 99,56 %
05.01.2016 01:00 -4,2 C 95 % 998,8 hPa 0,0 l/m 3,4 km/h (1 Bft) NO 0,00 h 0,000 mm 0,0 UV-I 0 W/m -4,9 C -4,2 C 6,0 km/h (2 Bft) 98,03 %
05.01.2016 02:00 -4,4 C 95 % 999,0 hPa 0,0 l/m 3,6 km/h (1 Bft) O-NO 0,00 h 0,000 mm 0,0 UV-I 0 W/m -5,1 C -4,4 C 6,0 km/h (2 Bft) 98,91 %
05.01.2016 03:00 -4,9 C 95 % 998,9 hPa 0,0 l/m 3,3 km/h (1 Bft) NO 0,00 h 0,000 mm 0,0 UV-I 0 W/m -5,5 C -4,9 C 5,7 km/h (1 Bft) 98,27 %
05.01.2016 04:00 -5,7 C 96 % 998,5 hPa 0,0 l/m 3,4 km/h (1 Bft) O-NO 0,00 h 0,000 mm 0,0 UV-I 0 W/m -6,2 C -5,7 C 5,5 km/h (1 Bft) 98,55 %
05.01.2016 05:00 -6,4 C 95 % 998,3 hPa 0,0 l/m 2,3 km/h (1 Bft) NO 0,00 h 0,000 mm 0,0 UV-I 0 W/m -7,0 C -6,4 C 4,4 km/h (1 Bft) 98,94 %
05.01.2016 06:00 -7,5 C 95 % 998,5 hPa 0,0 l/m 0,3 km/h (0 Bft) NO 0,00 h 0,000 mm 0,0 UV-I 0 W/m -8,2 C -7,5 C 1,1 km/h (0 Bft) 98,13 %
05.01.2016 07:00 -8,3 C 94 % 998,4 hPa 0,0 l/m 0,6 km/h (0 Bft) O 0,00 h 0,000 mm 0,0 UV-I 0 W/m -9,1 C -8,3 C 2,0 km/h (1 Bft) 99,27 %
05.01.2016 08:00 -8,6 C 94 % 999,0 hPa 0,0 l/m 2,6 km/h (1 Bft) S 0,00 h 0,000 mm 0,0 UV-I 19 W/m -9,3 C -8,6 C 4,5 km/h (1 Bft) 97,49 %
05.01.2016 09:00 -7,2 C 95 % 999,3 hPa 0,0 l/m 1,0 km/h (0 Bft) S 0,00 h 0,000 mm 0,0 UV-I 77 W/m -7,9 C -7,2 C 2,8 km/h (1 Bft) 99,23 %
05.01.2016 10:00 -5,4 C 95 % 999,7 hPa 0,0 l/m 0,3 km/h (0 Bft) W-NW 0,00 h 0,025 mm 0,0 UV-I 60 W/m -6,0 C -5,4 C 1,6 km/h (1 Bft) 98,27 %
05.01.2016 11:00 -4,9 C 95 % 1000,0 hPa 0,0 l/m 2,3 km/h (1 Bft) W-SW 0,00 h 0,026 mm 0,0 UV-I 72 W/m -5,5 C -4,9 C 4,7 km/h (1 Bft) 98,93 %
05.01.2016 12:00 -4,4 C 96 % 1000,0 hPa 0,0 l/m 2,9 km/h (1 Bft) S-SW 0,00 h 0,025 mm 0,0 UV-I 82 W/m -5,0 C -4,4 C 6,3 km/h (2 Bft) 97,96 %
05.01.2016 13:00 -3,4 C 95 % 1000,0 hPa 0,0 l/m 2,0 km/h (1 Bft) SO 0,00 h 0,026 mm 0,0 UV-I 61 W/m -4,0 C -3,4 C 4,5 km/h (1 Bft) 99,40 %
05.01.2016 14:00 -2,4 C 93 % 1000,3 hPa 0,0 l/m 2,1 km/h (1 Bft) SW 0,00 h 0,025 mm 0,0 UV-I 48 W/m -3,4 C -2,4 C 4,7 km/h (1 Bft) 97,66 %
05.01.2016 15:00 -2,4 C 93 % 1000,8 hPa 0,0 l/m 2,2 km/h (1 Bft) NO 0,00 h 0,025 mm 0,0 UV-I 29 W/m -3,3 C -2,4 C 4,3 km/h (1 Bft) 99,30 %
05.01.2016 16:00 -2,9 C 94 % 1001,1 hPa 0,0 l/m 6,4 km/h (2 Bft) O-NO 0,00 h 0,000 mm 0,0 UV-I 6 W/m -3,6 C -3,4 C 10,1 km/h (2 Bft) 97,90 %
05.01.2016 17:00 -3,2 C 95 % 1001,5 hPa 0,0 l/m 7,4 km/h (2 Bft) O-NO 0,00 h 0,000 mm 0,0 UV-I 0 W/m -3,8 C -4,3 C 12,6 km/h (3 Bft) 99,14 %
05.01.2016 18:00 -3,3 C 95 % 1002,0 hPa 0,0 l/m 6,6 km/h (2 Bft) O-NO 0,00 h 0,000 mm 0,0 UV-I 0 W/m -3,9 C -4,1 C 11,7 km/h (2 Bft) 98,00 %
05.01.2016 19:00 -3,5 C 95 % 1002,1 hPa 0,0 l/m 7,9 km/h (2 Bft) NO 0,00 h 0,000 mm 0,0 UV-I 0 W/m -4,2 C -5,7 C 14,1 km/h (3 Bft) 99,37 %
05.01.2016 20:00 -3,8 C 95 % 1002,2 hPa 0,0 l/m 4,2 km/h (1 Bft) O-NO 0,00 h 0,000 mm 0,0 UV-I 0 W/m -4,5 C -4,0 C 9,2 km/h (2 Bft) 98,09 %
05.01.2016 21:00 -4,0 C 95 % 1002,5 hPa 0,0 l/m 2,9 km/h (1 Bft) O-NO 0,00 h 0,000 mm 0,0 UV-I 0 W/m -4,7 C -4,0 C 6,0 km/h (2 Bft) 99,42 %
05.01.2016 22:00 -4,4 C 95 % 1002,6 hPa 0,0 l/m 3,1 km/h (1 Bft) NO 0,00 h 0,000 mm 0,0 UV-I 0 W/m -5,1 C -4,4 C 5,7 km/h (1 Bft) 97,53 %
05.01.2016 23:00 -5,1 C 95 % 1002,7 hPa 0,0 l/m 3,3 km/h (1 Bft) O-NO 0,00 h 0,000 mm 0,0 UV-I 0 W/m -5,8 C -5,1 C 6,5 km/h (2 Bft) 99,63 %
06.01.2016 00:00 -5,1 C 95 % 1002,7 hPa 0,0 l/m 4,4 km/h (1 Bft) NO 0,00 h 0,000 mm 0,0 UV-I 0 W/m -5,8 C -5,3 C 8,4 km/h (2 Bft) 98,12 %
06.01.2016 01:00 -5,7 C 95 % 1002,6 hPa 0,0 l/m 6,8 km/h (2 Bft) O-NO 0,00 h 0,000 mm 0,0 UV-I 0 W/m -6,3 C -6,9 C 11,7 km/h (2 Bft) 98,89 %
06.01.2016 02:00 -6,3 C 95 % 1002,8 hPa 0,0 l/m 3,9 km/h (1 Bft) O-NO 0,00 h 0,000 mm 0,0 UV-I 0 W/m -6,9 C -6,4 C 6,7 km/h (2 Bft) 97,64 %
06.01.2016 03:00 -6,3 C 96 % 1003,1 hPa 0,0 l/m 4,1 km/h (1 Bft) O-NO 0,00 h 0,000 mm 0,0 UV-I 0 W/m -6,8 C -6,4 C 7,5 km/h (2 Bft) 98,65 %
06.01.2016 04:00 -6,2 C 96 % 1002,9 hPa 0,0 l/m 5,0 km/h (1 Bft) O-NO 0,00 h 0,000 mm 0,0 UV-I 0 W/m -6,8 C -6,5 C 9,7 km/h (2 Bft) 97,94 %
06.01.2016 05:00 -6,6 C 95 % 1002,9 hPa 0,0 l/m 4,9 km/h (1 Bft) NO 0,00 h 0,000 mm 0,0 UV-I 0 W/m -7,2 C -6,7 C 7,6 km/h (2 Bft) 98,71 %
06.01.2016 06:00 -6,9 C 95 % 1003,3 hPa 0,0 l/m 5,0 km/h (1 Bft) O-NO 0,00 h 0,000 mm 0,0 UV-I 0 W/m -7,6 C -7,4 C 9,7 km/h (2 Bft) 98,67 %
06.01.2016 07:00 -6,9 C 95 % 1003,6 hPa 0,0 l/m 4,4 km/h (1 Bft) NO 0,00 h 0,000 mm 0,0 UV-I 0 W/m -7,5 C -6,9 C 6,7 km/h (2 Bft) 98,27 %
06.01.2016 08:00 -6,5 C 95 % 1003,9 hPa 0,0 l/m 5,5 km/h (1 Bft) O-NO 0,00 h 0,000 mm 0,0 UV-I 10 W/m -7,1 C -6,6 C 9,7 km/h (2 Bft) 98,50 %
06.01.2016 09:00 -6,1 C 95 % 1004,2 hPa 0,0 l/m 6,0 km/h (2 Bft) NO 0,00 h 0,000 mm 0,0 UV-I 38 W/m -6,8 C -6,6 C 10,0 km/h (2 Bft) 99,28 %
06.01.2016 10:00 -5,7 C 95 % 1004,6 hPa 0,0 l/m 4,4 km/h (1 Bft) O-NO 0,00 h 0,000 mm 0,0 UV-I 58 W/m -6,4 C -5,7 C 7,4 km/h (2 Bft) 98,23 %
06.01.2016 11:00 -5,1 C 95 % 1004,2 hPa 0,0 l/m 3,6 km/h (1 Bft) NO 0,00 h 0,025 mm 0,0 UV-I 82 W/m -5,8 C -5,1 C 6,5 km/h (2 Bft) 98,43 %
06.01.2016 12:00 -4,5 C 93 % 1003,7 hPa 0,0 l/m 1,6 km/h (1 Bft) NO 0,00 h 0,026 mm 0,0 UV-I 73 W/m -5,5 C -4,5 C 3,6 km/h (1 Bft) 98,30 %
06.01.2016 13:00 -4,4 C 92 % 1003,3 hPa 0,0 l/m 0,3 km/h (0 Bft) NO 0,00 h 0,025 mm 0,0 UV-I 68 W/m -5,5 C -4,4 C 1,7 km/h (1 Bft) 99,08 %
06.01.2016 14:00 -4,0 C 92 % 1003,3 hPa 0,0 l/m 0,9 km/h (0 Bft) O-NO 0,33 h 0,026 mm 0,0 UV-I 100 W/m -5,1 C -4,0 C 2,5 km/h (1 Bft) 98,13 %
06.01.2016 15:00 -4,0 C 92 % 1003,5 hPa 0,0 l/m 1,1 km/h (1 Bft) O-SO 0,42 h 0,025 mm 0,0 UV-I 63 W/m -5,1 C -4,0 C 2,3 km/h (1 Bft) 99,01 %
06.01.2016 16:00 -5,2 C 94 % 1003,8 hPa 0,0 l/m 1,3 km/h (1 Bft) O 0,00 h 0,025 mm 0,0 UV-I 7 W/m -6,0 C -5,2 C 2,5 km/h (1 Bft) 99,16 %
06.01.2016 17:00 -6,0 C 95 % 1003,7 hPa 0,0 l/m 2,5 km/h (1 Bft) NO 0,00 h 0,000 mm 0,0 UV-I 0 W/m -6,6 C -6,0 C 4,4 km/h (1 Bft) 97,94 %
06.01.2016 18:00 -7,2 C 95 % 1003,7 hPa 0,0 l/m 0,8 km/h (0 Bft) O-NO 0,00 h 0,000 mm 0,0 UV-I 0 W/m -7,9 C -7,2 C 2,3 km/h (1 Bft) 98,78 %
06.01.2016 19:00 -7,6 C 95 % 1003,8 hPa 0,0 l/m 1,2 km/h (1 Bft) S 0,00 h 0,000 mm 0,0 UV-I 0 W/m -8,3 C -7,6 C 2,9 km/h (1 Bft) 99,29 %
06.01.2016 20:00 -8,0 C 94 % 1004,0 hPa 0,0 l/m 0,8 km/h (0 Bft) SW 0,00 h 0,000 mm 0,0 UV-I 0 W/m -8,7 C -8,0 C 2,8 km/h (1 Bft) 97,43 %
06.01.2016 21:00 -8,5 C 94 % 1004,4 hPa 0,0 l/m 3,6 km/h (1 Bft) S 0,00 h 0,000 mm 0,0 UV-I 0 W/m -9,2 C -8,5 C 6,1 km/h (2 Bft) 99,38 %
06.01.2016 22:00 -7,5 C 95 % 1004,4 hPa 0,0 l/m 2,4 km/h (1 Bft) S-SW 0,00 h 0,000 mm 0,0 UV-I 0 W/m -8,2 C -7,5 C 4,7 km/h (1 Bft) 97,81 %
06.01.2016 23:00 -6,7 C 95 % 1004,4 hPa 0,0 l/m 1,0 km/h (0 Bft) S-SW 0,00 h 0,000 mm 0,0 UV-I 0 W/m -7,3 C -6,7 C 2,5 km/h (1 Bft) 99,43 %
07.01.2016 00:00 -6,7 C 95 % 1004,2 hPa 0,0 l/m 1,5 km/h (1 Bft) SW 0,00 h 0,000 mm 0,0 UV-I 0 W/m -7,4 C -6,7 C 3,3 km/h (1 Bft) 97,71 %
07.01.2016 01:00 -6,2 C 95 % 1004,4 hPa 0,0 l/m 3,2 km/h (1 Bft) S 0,00 h 0,000 mm 0,0 UV-I 0 W/m -6,8 C -6,2 C 5,7 km/h (1 Bft) 99,29 %
07.01.2016 02:00 -5,2 C 96 % 1004,6 hPa 0,0 l/m 3,1 km/h (1 Bft) S 0,00 h 0,000 mm 0,0 UV-I 0 W/m -5,8 C -5,2 C 6,1 km/h (2 Bft) 97,84 %
07.01.2016 03:00 -4,2 C 95 % 1004,6 hPa 0,0 l/m 3,3 km/h (1 Bft) S 0,00 h 0,000 mm 0,0 UV-I 0 W/m -4,9 C -4,2 C 6,5 km/h (2 Bft) 99,27 %
07.01.2016 04:00 -3,4 C 96 % 1004,9 hPa 0,0 l/m 2,5 km/h (1 Bft) S-SW 0,00 h 0,000 mm 0,0 UV-I 0 W/m -4,0 C -3,4 C 4,8 km/h (1 Bft) 97,93 %
07.01.2016 05:00 -2,6 C 96 % 1005,0 hPa 0,0 l/m 1,4 km/h (1 Bft) S 0,00 h 0,000 mm 0,0 UV-I 0 W/m -3,2 C -2,6 C 3,1 km/h (1 Bft) 98,85 %
07.01.2016 06:00 -2,1 C 96 % 1004,9 hPa 0,0 l/m 0,7 km/h (0 Bft) S 0,00 h 0,000 mm 0,0 UV-I 0 W/m -2,6 C -2,1 C 2,0 km/h (1 Bft) 98,36 %
07.01.2016 07:00 -1,6 C 96 % 1004,7 hPa 0,0 l/m 0,9 km/h (0 Bft) S 0,00 h 0,000 mm 0,0 UV-I 0 W/m -2,1 C -1,6 C 2,7 km/h (1 Bft) 99,00 %
07.01.2016 08:00 -1,6 C 96 % 1005,2 hPa 0,0 l/m 1,9 km/h (1 Bft) N-NO 0,00 h 0,000 mm 0,0 UV-I 11 W/m -2,2 C -1,6 C 3,9 km/h (1 Bft) 98,46 %
07.01.2016 09:00 -1,8 C 96 % 1005,3 hPa 0,0 l/m 3,2 km/h (1 Bft) NO 0,00 h 0,000 mm 0,0 UV-I 44 W/m -2,3 C -1,8 C 5,7 km/h (1 Bft) 98,79 %
07.01.2016 10:00 -0,4 C 97 % 1004,7 hPa 0,0 l/m 3,8 km/h (1 Bft) SO 0,00 h 0,025 mm 0,0 UV-I 73 W/m -0,9 C -0,5 C 6,4 km/h (2 Bft) 98,30 %
07.01.2016 11:00 0,1 C 96 % 1003,9 hPa 0,0 l/m 5,2 km/h (1 Bft) O-NO 0,00 h 0,026 mm 0,0 UV-I 149 W/m -0,4 C -0,3 C 9,8 km/h (2 Bft) 98,57 %
07.01.2016 12:00 0,4 C 98 % 1002,6 hPa 0,6 l/m 6,5 km/h (2 Bft) NO 0,08 h 0,051 mm 0,5 UV-I 162 W/m 0,0 C -0,5 C 10,3 km/h (2 Bft) 98,12 %
07.01.2016 13:00 0,3 C 97 % 1001,3 hPa 0,8 l/m 10,5 km/h (2 Bft) O-NO 0,08 h 0,050 mm 0,4 UV-I 136 W/m -0,1 C -3,4 C 16,0 km/h (3 Bft) 99,01 %
07.01.2016 14:00 0,4 C 96 % 1000,7 hPa 0,6 l/m 9,8 km/h (2 Bft) NO 0,00 h 0,051 mm 0,0 UV-I 79 W/m -0,1 C -2,8 C 16,0 km/h (3 Bft) 98,50 %
07.01.2016 15:00 0,3 C 98 % 999,6 hPa 0,2 l/m 19,2 km/h (3 Bft) O-NO 0,00 h 0,026 mm 0,0 UV-I 20 W/m -0,0 C -8,8 C 28,2 km/h (4 Bft) 98,59 %
07.01.2016 16:00 0,3 C 98 % 999,8 hPa 0,2 l/m 14,3 km/h (3 Bft) O-NO 0,00 h 0,000 mm 0,0 UV-I 6 W/m 0,0 C -6,2 C 21,4 km/h (4 Bft) 99,06 %
07.01.2016 17:00 0,5 C 98 % 999,8 hPa 0,0 l/m 15,6 km/h (3 Bft) O-NO 0,00 h 0,000 mm 0,0 UV-I 0 W/m 0,2 C -6,7 C 23,4 km/h (4 Bft) 98,48 %
07.01.2016 18:00 0,7 C 98 % 999,8 hPa 0,2 l/m 11,2 km/h (2 Bft) O-NO 0,00 h 0,000 mm 0,0 UV-I 0 W/m 0,4 C -3,6 C 18,7 km/h (3 Bft) 98,04 %
07.01.2016 19:00 0,7 C 97 % 1000,5 hPa 0,2 l/m 4,5 km/h (1 Bft) O-NO 0,00 h 0,000 mm 0,0 UV-I 0 W/m 0,3 C 0,5 C 8,4 km/h (2 Bft) 98,03 %
07.01.2016 20:00 0,5 C 97 % 1001,7 hPa 0,0 l/m 1,7 km/h (1 Bft) W 0,00 h 0,000 mm 0,0 UV-I 0 W/m 0,1 C 0,5 C 3,5 km/h (1 Bft) 98,46 %
07.01.2016 21:00 0,4 C 98 % 1002,2 hPa 0,0 l/m 1,9 km/h (1 Bft) S 0,00 h 0,000 mm 0,0 UV-I 0 W/m 0,1 C 0,4 C 4,1 km/h (1 Bft) 98,13 %
07.01.2016 22:00 0,4 C 98 % 1002,4 hPa 0,0 l/m 1,5 km/h (1 Bft) SW 0,00 h 0,000 mm 0,0 UV-I 0 W/m 0,1 C 0,4 C 4,0 km/h (1 Bft) 99,43 %
07.01.2016 23:00 0,3 C 98 % 1002,6 hPa 0,2 l/m 3,2 km/h (1 Bft) NO 0,00 h 0,000 mm 0,0 UV-I 0 W/m -0,0 C 0,1 C 7,1 km/h (2 Bft) 97,71 %
08.01.2016 00:00 0,2 C 99 % 1003,3 hPa 0,0 l/m 1,2 km/h (1 Bft) O 0,00 h 0,000 mm 0,0 UV-I 0 W/m 0,1 C 0,2 C 3,5 km/h (1 Bft) 99,52 %
08.01.2016 01:00 0,3 C 99 % 1004,0 hPa 0,0 l/m 0,9 km/h (0 Bft) S-SO 0,00 h 0,000 mm 0,0 UV-I 0 W/m 0,1 C 0,3 C 3,7 km/h (1 Bft) 98,02 %
08.01.2016 02:00 1,7 C 99 % 1004,5 hPa 0,0 l/m 6,0 km/h (2 Bft) S 0,00 h 0,000 mm 0,0 UV-I 0 W/m 1,5 C 0,0 C 10,5 km/h (2 Bft) 99,14 %
08.01.2016 03:00 3,4 C 95 % 1005,5 hPa 0,6 l/m 12,2 km/h (2 Bft) SW 0,00 h 0,000 mm 0,0 UV-I 0 W/m 2,6 C -1,2 C 18,1 km/h (3 Bft) 97,42 %
08.01.2016 04:00 3,6 C 92 % 1005,9 hPa 0,4 l/m 13,5 km/h (3 Bft) SW 0,00 h 0,000 mm 0,0 UV-I 0 W/m 2,5 C -1,6 C 20,6 km/h (4 Bft) 99,05 %
08.01.2016 05:00 4,1 C 88 % 1006,3 hPa 0,8 l/m 16,4 km/h (3 Bft) W-SW 0,00 h 0,000 mm 0,0 UV-I 0 W/m 2,2 C -2,7 C 24,5 km/h (4 Bft) 97,51 %
08.01.2016 06:00 4,3 C 84 % 1007,0 hPa 1,0 l/m 13,8 km/h (3 Bft) SW 0,00 h 0,025 mm 0,0 UV-I 0 W/m 1,9 C -1,1 C 20,9 km/h (4 Bft) 98,71 %
08.01.2016 07:00 4,3 C 84 % 1007,7 hPa 0,8 l/m 13,8 km/h (3 Bft) SW 0,00 h 0,026 mm 0,0 UV-I 1 W/m 1,9 C -0,9 C 21,3 km/h (4 Bft) 99,21 %
08.01.2016 08:00 4,0 C 85 % 1008,4 hPa 0,4 l/m 10,0 km/h (2 Bft) SW 0,00 h 0,025 mm 0,0 UV-I 24 W/m 1,7 C 1,0 C 16,2 km/h (3 Bft) 98,46 %
08.01.2016 09:00 5,0 C 79 % 1009,0 hPa 0,6 l/m 13,5 km/h (3 Bft) SW 0,33 h 0,026 mm 0,0 UV-I 86 W/m 1,7 C -0,1 C 22,0 km/h (4 Bft) 99,15 %
08.01.2016 10:00 5,4 C 78 % 1009,3 hPa 0,4 l/m 11,3 km/h (2 Bft) SW 1,00 h 0,050 mm 0,5 UV-I 235 W/m 1,8 C 1,6 C 18,8 km/h (3 Bft) 98,39 %
08.01.2016 11:00 6,0 C 76 % 1009,1 hPa 0,2 l/m 7,3 km/h (2 Bft) S-SW 0,75 h 0,127 mm 0,7 UV-I 250 W/m 2,0 C 5,0 C 13,4 km/h (3 Bft) 98,28 %
08.01.2016 12:00 5,4 C 78 % 1009,0 hPa 0,0 l/m 7,0 km/h (2 Bft) S 0,00 h 0,102 mm 0,7 UV-I 104 W/m 1,9 C 4,7 C 11,4 km/h (2 Bft) 99,09 %
08.01.2016 13:00 6,2 C 74 % 1008,8 hPa 0,0 l/m 4,1 km/h (1 Bft) S 0,67 h 0,051 mm 0,6 UV-I 215 W/m 2,0 C 6,2 C 7,8 km/h (2 Bft) 98,13 %
08.01.2016 14:00 6,8 C 71 % 1008,1 hPa 0,0 l/m 2,8 km/h (1 Bft) W-SW 0,25 h 0,101 mm 0,4 UV-I 105 W/m 1,8 C 6,8 C 5,3 km/h (1 Bft) 98,01 %
08.01.2016 15:00 5,1 C 78 % 1007,9 hPa 0,0 l/m 0,9 km/h (0 Bft) N 0,00 h 0,051 mm 0,0 UV-I 32 W/m 1,5 C 5,1 C 2,8 km/h (1 Bft) 99,00 %
08.01.2016 16:00 4,0 C 82 % 1007,7 hPa 0,0 l/m 2,9 km/h (1 Bft) O-NO 0,00 h 0,026 mm 0,0 UV-I 6 W/m 1,1 C 4,0 C 5,2 km/h (1 Bft) 99,51 %
08.01.2016 17:00 3,5 C 84 % 1007,6 hPa 0,0 l/m 3,9 km/h (1 Bft) O 0,00 h 0,000 mm 0,0 UV-I 0 W/m 1,0 C 3,5 C 6,8 km/h (2 Bft) 97,81 %
08.01.2016 18:00 3,5 C 84 % 1007,5 hPa 0,0 l/m 4,7 km/h (1 Bft) O-SO 0,00 h 0,000 mm 0,0 UV-I 0 W/m 0,9 C 3,2 C 9,5 km/h (2 Bft) 99,01 %
08.01.2016 19:00 2,9 C 86 % 1006,9 hPa 0,0 l/m 2,3 km/h (1 Bft) O 0,00 h 0,000 mm 0,0 UV-I 0 W/m 0,8 C 2,9 C 4,5 km/h (1 Bft) 98,01 %
08.01.2016 20:00 2,2 C 89 % 1006,6 hPa 0,0 l/m 2,4 km/h (1 Bft) N-NO 0,00 h 0,000 mm 0,0 UV-I 0 W/m 0,6 C 2,2 C 4,5 km/h (1 Bft) 99,42 %
08.01.2016 21:00 2,0 C 90 % 1006,0 hPa 0,0 l/m 3,3 km/h (1 Bft) NO 0,00 h 0,000 mm 0,0 UV-I 0 W/m 0,5 C 2,0 C 5,5 km/h (1 Bft) 98,72 %
08.01.2016 22:00 1,2 C 92 % 1005,7 hPa 0,0 l/m 0,9 km/h (0 Bft) O-NO 0,00 h 0,000 mm 0,0 UV-I 0 W/m 0,1 C 1,2 C 3,1 km/h (1 Bft) 98,73 %
08.01.2016 23:00 0,8 C 94 % 1005,6 hPa 0,0 l/m 1,2 km/h (1 Bft) S-SW 0,00 h 0,000 mm 0,0 UV-I 0 W/m -0,0 C 0,8 C 3,1 km/h (1 Bft) 99,36 %
09.01.2016 00:00 0,8 C 94 % 1005,6 hPa 0,0 l/m 1,6 km/h (1 Bft) S-SW 0,00 h 0,000 mm 0,0 UV-I 0 W/m 0,0 C 0,8 C 3,5 km/h (1 Bft) 98,21 %
09.01.2016 01:00 1,1 C 94 % 1005,7 hPa 0,0 l/m 1,7 km/h (1 Bft) S-SW 0,00 h 0,000 mm 0,0 UV-I 0 W/m 0,2 C 1,1 C 3,7 km/h (1 Bft) 99,42 %
09.01.2016 02:00 1,2 C 94 % 1006,2 hPa 0,0 l/m 0,7 km/h (0 Bft) S-SW 0,00 h 0,000 mm 0,0 UV-I 0 W/m 0,4 C 1,2 C 2,9 km/h (1 Bft) 98,30 %
09.01.2016 03:00 1,2 C 96 % 1006,2 hPa 0,4 l/m 1,6 km/h (1 Bft) S-SW 0,00 h 0,000 mm 0,0 UV-I 0 W/m 0,6 C 1,2 C 3,6 km/h (1 Bft) 99,43 %
09.01.2016 04:00 1,1 C 96 % 1005,9 hPa 0,0 l/m 1,7 km/h (1 Bft) S-SO 0,00 h 0,000 mm 0,0 UV-I 0 W/m 0,6 C 1,1 C 4,0 km/h (1 Bft) 97,74 %
09.01.2016 05:00 0,9 C 97 % 1005,7 hPa 0,2 l/m 1,1 km/h (1 Bft) S-SO 0,00 h 0,000 mm 0,0 UV-I 0 W/m 0,4 C 0,9 C 2,8 km/h (1 Bft) 99,46 %
09.01.2016 06:00 0,9 C 97 % 1005,6 hPa 0,0 l/m 4,1 km/h (1 Bft) NO 0,00 h 0,000 mm 0,0 UV-I 0 W/m 0,5 C 0,9 C 6,4 km/h (2 Bft) 98,15 %
09.01.2016 07:00 0,9 C 97 % 1005,9 hPa 0,0 l/m 2,9 km/h (1 Bft) N-NO 0,00 h 0,000 mm 0,0 UV-I 0 W/m 0,4 C 0,9 C 4,9 km/h (1 Bft) 99,44 %
09.01.2016 08:00 1,0 C 97 % 1005,8 hPa 0,2 l/m 4,0 km/h (1 Bft) O 0,00 h 0,000 mm 0,0 UV-I 21 W/m 0,5 C 1,0 C 8,2 km/h (2 Bft) 98,24 %
09.01.2016 09:00 1,2 C 97 % 1006,0 hPa 0,0 l/m 3,0 km/h (1 Bft) N-NO 0,08 h 0,000 mm 0,0 UV-I 73 W/m 0,7 C 1,2 C 6,7 km/h (2 Bft) 99,06 %
09.01.2016 10:00 1,8 C 95 % 1006,2 hPa 0,0 l/m 5,1 km/h (1 Bft) O-NO 0,42 h 0,025 mm 0,5 UV-I 172 W/m 1,1 C 1,7 C 8,0 km/h (2 Bft) 97,80 %
09.01.2016 11:00 2,3 C 93 % 1005,8 hPa 0,0 l/m 5,6 km/h (1 Bft) NO 0,50 h 0,077 mm 0,6 UV-I 178 W/m 1,2 C 2,1 C 8,4 km/h (2 Bft) 99,20 %
09.01.2016 12:00 2,2 C 92 % 1005,2 hPa 0,0 l/m 5,0 km/h (1 Bft) NO 0,00 h 0,076 mm 0,5 UV-I 143 W/m 1,0 C 2,1 C 7,7 km/h (2 Bft) 97,97 %
09.01.2016 13:00 2,4 C 91 % 1005,0 hPa 0,0 l/m 5,1 km/h (1 Bft) N-NO 0,42 h 0,051 mm 0,5 UV-I 153 W/m 1,1 C 2,2 C 9,1 km/h (2 Bft) 99,04 %
09.01.2016 14:00 2,4 C 90 % 1004,8 hPa 0,0 l/m 4,8 km/h (1 Bft) O-NO 0,00 h 0,050 mm 0,0 UV-I 88 W/m 0,9 C 2,3 C 8,9 km/h (2 Bft) 97,59 %
09.01.2016 15:00 2,1 C 92 % 1005,3 hPa 0,0 l/m 0,8 km/h (0 Bft) O-SO 0,00 h 0,026 mm 0,0 UV-I 22 W/m 0,9 C 2,1 C 2,1 km/h (1 Bft) 99,58 %
09.01.2016 16:00 1,7 C 95 % 1005,7 hPa 0,2 l/m 1,4 km/h (1 Bft) O-SO 0,00 h 0,000 mm 0,0 UV-I 4 W/m 1,0 C 1,7 C 2,9 km/h (1 Bft) 97,51 %
09.01.2016 17:00 1,6 C 96 % 1005,9 hPa 0,8 l/m 2,9 km/h (1 Bft) O-NO 0,00 h 0,000 mm 0,0 UV-I 0 W/m 1,0 C 1,5 C 4,9 km/h (1 Bft) 99,08 %
09.01.2016 18:00 1,3 C 96 % 1005,6 hPa 0,2 l/m 3,7 km/h (1 Bft) O 0,00 h 0,000 mm 0,0 UV-I 0 W/m 0,7 C 1,3 C 7,5 km/h (2 Bft) 98,01 %
09.01.2016 19:00 1,0 C 97 % 1005,5 hPa 0,2 l/m 4,8 km/h (1 Bft) O-NO 0,00 h 0,000 mm 0,0 UV-I 0 W/m 0,6 C 1,0 C 7,3 km/h (2 Bft) 98,80 %
09.01.2016 20:00 0,9 C 97 % 1005,3 hPa 0,2 l/m 6,7 km/h (2 Bft) O-NO 0,00 h 0,000 mm 0,0 UV-I 0 W/m 0,4 C 0,3 C 10,2 km/h (2 Bft) 97,50 %
09.01.2016 21:00 0,7 C 97 % 1005,0 hPa 0,0 l/m 5,6 km/h (1 Bft) O-NO 0,00 h 0,000 mm 0,0 UV-I 0 W/m 0,3 C 0,6 C 8,8 km/h (2 Bft) 98,88 %
09.01.2016 22:00 0,6 C 97 % 1004,7 hPa 0,2 l/m 4,1 km/h (1 Bft) NO 0,00 h 0,000 mm 0,0 UV-I 0 W/m 0,2 C 0,6 C 7,3 km/h (2 Bft) 97,95 %
09.01.2016 23:00 0,5 C 98 % 1004,4 hPa 0,0 l/m 4,7 km/h (1 Bft) NO 0,00 h 0,000 mm 0,0 UV-I 0 W/m 0,2 C 0,5 C 7,9 km/h (2 Bft) 98,30 %
10.01.2016 00:00 0,5 C 98 % 1004,0 hPa 0,0 l/m 4,4 km/h (1 Bft) NO 0,00 h 0,000 mm 0,0 UV-I 0 W/m 0,2 C 0,5 C 7,2 km/h (2 Bft) 98,28 %
10.01.2016 01:00 0,5 C 98 % 1003,4 hPa 0,4 l/m 4,9 km/h (1 Bft) O-NO 0,00 h 0,000 mm 0,0 UV-I 0 W/m 0,2 C 0,5 C 8,0 km/h (2 Bft) 98,51 %
10.01.2016 02:00 0,5 C 98 % 1003,2 hPa 0,2 l/m 3,9 km/h (1 Bft) O-NO 0,00 h 0,000 mm 0,0 UV-I 0 W/m 0,2 C 0,0 C 7,6 km/h (2 Bft) 98,37 %
10.01.2016 03:00 0,5 C 98 % 1002,6 hPa 0,0 l/m 4,7 km/h (1 Bft) NO 0,00 h 0,000 mm 0,0 UV-I 0 W/m 0,2 C 0,3 C 7,5 km/h (2 Bft) 98,15 %
10.01.2016 04:00 0,4 C 98 % 1002,4 hPa 0,0 l/m 2,8 km/h (1 Bft) NO 0,00 h 0,000 mm 0,0 UV-I 0 W/m 0,1 C 0,4 C 6,0 km/h (2 Bft) 98,53 %
10.01.2016 05:00 0,4 C 98 % 1002,1 hPa 0,0 l/m 3,9 km/h (1 Bft) NO 0,00 h 0,000 mm 0,0 UV-I 0 W/m 0,1 C 0,4 C 6,4 km/h (2 Bft) 98,07 %
10.01.2016 06:00 0,4 C 98 % 1002,2 hPa 0,0 l/m 1,6 km/h (1 Bft) O-NO 0,00 h 0,000 mm 0,0 UV-I 0 W/m 0,1 C 0,4 C 3,3 km/h (1 Bft) 98,44 %
10.01.2016 07:00 0,4 C 98 % 1002,0 hPa 0,0 l/m 1,1 km/h (1 Bft) O 0,00 h 0,000 mm 0,0 UV-I 0 W/m 0,1 C 0,4 C 3,2 km/h (1 Bft) 97,44 %
10.01.2016 08:00 0,5 C 98 % 1002,0 hPa 0,0 l/m 2,2 km/h (1 Bft) O 0,00 h 0,000 mm 0,0 UV-I 18 W/m 0,3 C 0,5 C 5,3 km/h (1 Bft) 98,76 %
10.01.2016 09:00 0,9 C 99 % 1002,0 hPa 0,0 l/m 2,8 km/h (1 Bft) O 0,00 h 0,000 mm 0,0 UV-I 65 W/m 0,7 C 0,9 C 5,6 km/h (1 Bft) 97,93 %
10.01.2016 10:00 1,3 C 99 % 1001,7 hPa 0,0 l/m 2,2 km/h (1 Bft) O-NO 0,00 h 0,025 mm 0,0 UV-I 80 W/m 1,1 C 1,3 C 4,5 km/h (1 Bft) 99,51 %
10.01.2016 11:00 1,7 C 99 % 1001,5 hPa 0,0 l/m 3,5 km/h (1 Bft) O-SO 0,00 h 0,026 mm 0,0 UV-I 94 W/m 1,6 C 1,5 C 7,5 km/h (2 Bft) 98,55 %
10.01.2016 12:00 1,7 C 99 % 1001,4 hPa 0,0 l/m 2,0 km/h (1 Bft) SO 0,00 h 0,025 mm 0,0 UV-I 86 W/m 1,6 C 1,7 C 5,5 km/h (1 Bft) 99,31 %
10.01.2016 13:00 1,9 C 99 % 1002,1 hPa 0,0 l/m 4,0 km/h (1 Bft) W-SW 0,00 h 0,026 mm 0,0 UV-I 45 W/m 1,7 C 1,8 C 8,9 km/h (2 Bft) 98,17 %
10.01.2016 14:00 1,9 C 99 % 1002,5 hPa 0,0 l/m 4,8 km/h (1 Bft) S-SO 0,00 h 0,025 mm 0,0 UV-I 31 W/m 1,8 C 1,7 C 9,0 km/h (2 Bft) 99,36 %
10.01.2016 15:00 2,0 C 99 % 1002,4 hPa 0,0 l/m 2,0 km/h (1 Bft) SO 0,00 h 0,000 mm 0,0 UV-I 26 W/m 1,8 C 2,0 C 4,1 km/h (1 Bft) 98,29 %
10.01.2016 16:00 2,0 C 99 % 1002,1 hPa 0,0 l/m 3,6 km/h (1 Bft) NO 0,00 h 0,000 mm 0,0 UV-I 7 W/m 1,8 C 1,9 C 8,0 km/h (2 Bft) 98,67 %
10.01.2016 17:00 1,7 C 99 % 1001,8 hPa 0,0 l/m 2,9 km/h (1 Bft) NO 0,00 h 0,000 mm 0,0 UV-I 0 W/m 1,6 C 1,7 C 5,5 km/h (1 Bft) 98,31 %
10.01.2016 18:00 1,8 C 99 % 1001,3 hPa 0,0 l/m 6,0 km/h (2 Bft) O-NO 0,00 h 0,000 mm 0,0 UV-I 0 W/m 1,6 C 0,9 C 10,3 km/h (2 Bft) 99,14 %
10.01.2016 19:00 1,6 C 99 % 1000,4 hPa 0,0 l/m 9,1 km/h (2 Bft) NO 0,00 h 0,000 mm 0,0 UV-I 0 W/m 1,5 C -1,0 C 15,0 km/h (3 Bft) 98,29 %
10.01.2016 20:00 1,2 C 99 % 999,6 hPa 0,0 l/m 7,5 km/h (2 Bft) NO 0,00 h 0,000 mm 0,0 UV-I 0 W/m 1,1 C -0,7 C 11,9 km/h (2 Bft) 99,13 %
10.01.2016 21:00 1,1 C 99 % 999,8 hPa 0,0 l/m 1,0 km/h (0 Bft) N-NO 0,00 h 0,000 mm 0,0 UV-I 0 W/m 1,0 C 1,1 C 3,3 km/h (1 Bft) 97,93 %
10.01.2016 22:00 1,3 C 99 % 1000,4 hPa 0,0 l/m 7,7 km/h (2 Bft) S-SW 0,00 h 0,000 mm 0,0 UV-I 0 W/m 1,2 C -0,3 C 13,0 km/h (3 Bft) 99,00 %
10.01.2016 23:00 1,3 C 99 % 1000,2 hPa 0,0 l/m 8,4 km/h (2 Bft) S-SW 0,00 h 0,000 mm 0,0 UV-I 0 W/m 1,2 C -0,6 C 15,6 km/h (3 Bft) 97,72 %
Min-Datum _ 05.01.16 08.01.16 04.01.16 - 04.01.16 - - - - - 05.01.16 04.01.16 05.01.16 09.01.16
_ Min-Zeit 08:05 14:10 12:50 - 21:20 - - - - - 08:00 00:40 06:05 20:55
Minimum _ -9,0 C 67 % 996,1 hPa - 0,0 km/h (0 Bft) - - - - - -9,8 C -20,9 C 0,0 km/h (0 Bft) 92,37 %
Max-Datum _ 08.01.16 08.01.16 08.01.16 08.01.16 04.01.16 - 09.01.16 08.01.16 08.01.16 09.01.16 08.01.16 08.01.16 04.01.16 04.01.16
_ Max-Zeit 14:00 00:00 10:20 06:00 00:40 - 13:30 11:00 11:20 10:55 02:50 14:00 00:35 00:05
Maximum _ 7,4 C 99 % 1009,4 hPa 1,0 l/m 26,4 km/h
NO (4 Bft)
- 0,17 h 0,127 mm 0,8 UV-I 321 W/m 2,9 C 7,4 C 38,6 km/h
O-NO (5 Bft)
100,00 %
Durchschnitt _ -1,6 C 94 % 1002,7 hPa #11,4 l/m 5,1 km/h (1 Bft) O-NO #5:30 h #1,727 mm 0,5 UV-I 70 W/m -2,4 C -2,8 C 8,8 km/h (2 Bft) 98,52 %